AISSAT 1

Satellite information

Favourite Embed

Satellite Type and Status

PAYLOADIN ORBIT

Key statistics

Satellite AISSAT 1 at a glance.

Uptime

5585

Days in orbit

Revolutions

≈ 15.0

Per day

Orbit

SSO

Sun Synchronous Orbit

Inclination

98.1

Latest

Satellite identification and parameters

Extended collection of information and parameters for AISSAT 1.

Object identification

Identified? True

Debris? False

Object name: AISSAT 1

International designator: 2010-035C

Object number (NORAD): 36797

Object ID (CCSDS): 36797

Country: NORWAY (NOR)

Current information (Y/N): Y

RCS size: MEDIUM

Orbital parameters

Period: 96.266 minutes

Inclination: 98.1115 deg

SMA: 6957.851 km

Apoapsis: 587.015 km

Periapsis: 572.417 km

RAAN: 184.5484 deg

Eccentricy: 0.00104904

Argument of periapsis: 110.5399 deg

Mean anomaly: 249.6947 deg

Mean motion: 14.95856987 rev/day

Mean motion (dot): 0.00003819 rev/day2

B* drag term: 0.00034690941 1/REarth

Two-line elements (TLE)

Creation date: Oct. 26, 2025, 2:54 a.m.

Reference frame: TEME

Reference center: EARTH

Epoch: Oct. 25, 2025, 4:29 p.m. UTC

TLE line 0: 0 AISSAT 1

TLE line 1: 1 36797U 10035C 25298.68682543 .00003819 00000-0 34691-3 0 9996

TLE line 2: 2 36797 98.1115 184.5484 0010490 110.5399 249.6947 14.95856987829142

Live tracking on map

Real-time ground track for satellite AISSAT 1.

In-orbit conjunctions

There are no conjunctions computed for AISSAT 1, at the moment. Check back to stay up to date, as we update our databases every day.

Go to all conjunctions

Associated space launch

Cartosat-2B is fourth of Cartosat series of Earth observation satellites to be deployed in sun-synchronous orbit. Its main purpose is to collect high resolution imagery for cartography purposes. Cartosat-2B was launched along with several small satellites for Algeria, Canada and Switzerland.

AISSAT 1 was lifted into orbit during the mission ‘PSLV-CA | Cartosat-2B, AlSat-2A, StudSat, AISSat-1, TIsat-1’, on board a PSLV space rocket.

The launch took place on July 12, 2010, 3:52 a.m. from Satish Dhawan Space Centre First Launch Pad.

For more information about the launch, click the button.

Launch to space PSLV-CA | Cartosat-2B, AlSat-2A, StudSat, AISSat-1, TIsat-1
PSLV-CA | Cartosat-2B, AlSat-2A, StudSat, AISSat-1, TIsat-1

Agency: N/A

Status: Launch Successful

Launch date: July 12, 2010, 3:52 a.m. UTC

Rocket: PSLV

Launch pad: Satish Dhawan Space Centre First Launch Pad

Location: Satish Dhawan Space Centre, India

...

Latest news about this satellite

There are no fresh news available about this satellite. Check back as we update our databases every day.


Newsletter sign-up

Weekly statistics, charts and insights to help you stay on top of the space industry.